Weather History for Leonardtown, MD

Change the Weather History Date:

Sunday, March 30, 2014

  Actual Average (KNHK) Record (KNHK)
Temperature  
Mean Temperature 46 °F -  
Max Temperature 60 °F 63 °F 88 °F (1998)
Min Temperature 33 °F 46 °F 32 °F (2007)
Degree Days  
Heating Degree Days 18    
Moisture  
Dew Point 41 °F    
Average Humidity 88    
Maximum Humidity 94    
Minimum Humidity 76    
Precipitation  
Precipitation 0.00 in - - ()
Sea Level Pressure  
Sea Level Pressure 29.61 in    
Wind  
Wind Speed 7 mph (WNW)    
Max Wind Speed 17 mph    
Max Gust Speed 28 mph    
Visibility 7 miles    
Events      
Averages and records for this station are not official NWS values.
T = Trace of Precipitation, MM = Missing Value Source: NWS Daily Summary

Daily Weather History Graph

Daily Weather History Graph

Search for Another Location

Airport:

Trip Planner

Search our weather history database for the weather conditions in past years. The results will help you decide how hot, cold, wet, or windy it might be!

Date:

Astronomy

Mar. 30, 2014 Rise Set
Actual Time 6:54 AM EDT 7:27 PM EDT
Civil Twilight 6:27 AM EDT 7:54 PM EDT
Nautical Twilight 5:56 AM EDT 8:25 PM EDT
Astronomical Twilight 5:24 AM EDT 8:57 PM EDT
Moon 6:38 AM EDT 7:37 PM EDT
Length of Visible Light 13h 26m
Length of Day
12h 33m
Waning Crescent, 0% of the Moon is Illuminated
Mar 30
Waning Crescent
Mar 30
New
Apr 7
First Quarter
Apr 15
Full
Apr 22
Last Quarter

Hourly Weather History & Observations

Time (EDT) Temp. Windchill Dew Point Humidity Pressure Visibility Wind Dir Wind Speed Gust Speed Precip Events Conditions
12:05 AM 60.8 °F - 59.0 °F 94% 29.57 in 10.0 mi South 3.5 mph - N/A   Overcast
12:25 AM 60.8 °F - 59.0 °F 94% 29.56 in 10.0 mi South 3.5 mph - N/A   Overcast
12:45 AM 60.8 °F - 59.0 °F 94% 29.56 in 10.0 mi Calm Calm - N/A   Overcast
1:05 AM 60.8 °F - 59.0 °F 94% 29.55 in 10.0 mi Calm Calm - N/A   Overcast
1:25 AM 60.8 °F - 59.0 °F 94% 29.54 in 7.0 mi SE 3.5 mph - N/A   Overcast
1:45 AM 60.8 °F - 59.0 °F 94% 29.53 in 7.0 mi Calm Calm - N/A   Overcast
2:05 AM 60.8 °F - 59.0 °F 94% 29.52 in 5.0 mi ESE 3.5 mph - N/A   Overcast
2:25 AM 60.8 °F - 59.0 °F 94% 29.51 in 4.0 mi Calm Calm - N/A   Overcast
2:45 AM 60.8 °F - 59.0 °F 94% 29.49 in 4.0 mi Calm Calm - N/A   Overcast
3:05 AM 59.0 °F - 55.4 °F 88% 29.48 in 1.2 mi Calm Calm - N/A   Overcast
3:25 AM 55.4 °F - 53.6 °F 94% 29.48 in 1.5 mi Calm Calm - N/A   Overcast
3:45 AM 55.4 °F - 53.6 °F 94% 29.47 in 2.5 mi Calm Calm - N/A   Overcast
4:05 AM 55.4 °F - 53.6 °F 94% 29.48 in 3.0 mi NW 5.8 mph - N/A   Overcast
4:26 AM 51.8 °F - 50.0 °F 94% 29.49 in 7.0 mi NW 11.5 mph 18.4 mph N/A   Overcast
4:46 AM 50.0 °F - 46.4 °F 87% 29.49 in 10.0 mi WNW 9.2 mph 16.1 mph N/A   Overcast
5:06 AM 50.0 °F - 46.4 °F 87% 29.49 in 10.0 mi WNW 6.9 mph - N/A   Overcast
5:26 AM 50.0 °F - 46.4 °F 87% 29.48 in 10.0 mi NW 8.1 mph - N/A   Overcast
5:46 AM 48.2 °F - 44.6 °F 87% 29.49 in 10.0 mi WNW 6.9 mph - N/A   Overcast
6:06 AM 48.2 °F - 44.6 °F 87% 29.50 in 10.0 mi WNW 8.1 mph 17.3 mph N/A   Overcast
6:26 AM 48.2 °F - 44.6 °F 87% 29.52 in 10.0 mi WNW 6.9 mph - N/A   Overcast
6:46 AM 46.4 °F 42.9 °F 44.6 °F 93% 29.51 in 7.0 mi NW 6.9 mph 18.4 mph N/A   Overcast
7:06 AM 46.4 °F 41.5 °F 44.6 °F 93% 29.52 in 7.0 mi WNW 10.4 mph 16.1 mph N/A   Overcast
7:26 AM 46.4 °F 42.9 °F 44.6 °F 93% 29.52 in 7.0 mi WNW 6.9 mph 18.4 mph N/A   Overcast
7:46 AM 46.4 °F 41.5 °F 44.6 °F 93% 29.52 in 10.0 mi NW 10.4 mph 16.1 mph N/A   Overcast
8:06 AM 46.4 °F 41.1 °F 42.8 °F 87% 29.53 in 10.0 mi NW 11.5 mph 25.3 mph N/A   Overcast
8:26 AM 46.4 °F 41.1 °F 42.8 °F 87% 29.54 in 10.0 mi West 11.5 mph - N/A   Overcast
8:46 AM 44.6 °F 39.2 °F 41.0 °F 87% 29.55 in 10.0 mi WNW 10.4 mph 23.0 mph N/A   Overcast
9:06 AM 44.6 °F 39.2 °F 41.0 °F 87% 29.55 in 5.0 mi WNW 10.4 mph 20.7 mph N/A   Overcast
9:26 AM 44.6 °F 40.7 °F 41.0 °F 87% 29.56 in 4.0 mi WNW 6.9 mph - N/A   Overcast
9:46 AM 42.8 °F 36.6 °F 41.0 °F 93% 29.56 in 5.0 mi WNW 11.5 mph 19.6 mph N/A   Overcast
10:06 AM 42.8 °F 37.0 °F 41.0 °F 93% 29.57 in 7.0 mi NW 10.4 mph 18.4 mph N/A   Overcast
10:26 AM 42.8 °F 35.8 °F 41.0 °F 93% 29.57 in 5.0 mi NW 13.8 mph 24.2 mph N/A   Overcast
10:46 AM 42.8 °F 34.8 °F 39.2 °F 87% 29.57 in 5.0 mi WNW 17.3 mph 25.3 mph N/A   Overcast
11:06 AM 42.8 °F 36.2 °F 39.2 °F 87% 29.58 in 10.0 mi WNW 12.7 mph 23.0 mph N/A   Overcast
11:26 AM 42.8 °F 35.8 °F 39.2 °F 87% 29.58 in 7.0 mi WNW 13.8 mph 23.0 mph N/A   Overcast
11:46 AM 42.8 °F 35.4 °F 37.4 °F 81% 29.58 in 5.0 mi NW 15.0 mph 27.6 mph N/A   Overcast
12:06 PM 42.8 °F 35.4 °F 37.4 °F 81% 29.58 in 10.0 mi WNW 15.0 mph 19.6 mph N/A   Overcast
12:26 PM 42.8 °F 34.8 °F 37.4 °F 81% 29.59 in 10.0 mi NW 17.3 mph 27.6 mph N/A   Overcast
12:46 PM 42.8 °F 36.6 °F 35.6 °F 76% 29.60 in 10.0 mi NW 11.5 mph 19.6 mph N/A   Overcast
1:07 PM 42.8 °F 37.5 °F 35.6 °F 76% 29.61 in 10.0 mi WNW 9.2 mph 25.3 mph N/A   Overcast
1:27 PM 42.8 °F 37.0 °F 35.6 °F 76% 29.62 in 10.0 mi NW 10.4 mph 18.4 mph N/A   Overcast
1:47 PM 41.0 °F 33.9 °F 33.8 °F 76% 29.62 in 10.0 mi NW 12.7 mph 24.2 mph N/A   Overcast
2:07 PM 41.0 °F 35.8 °F 33.8 °F 76% 29.62 in 10.0 mi WNW 8.1 mph 17.3 mph N/A   Overcast
2:27 PM 41.0 °F 32.8 °F 33.8 °F 76% 29.63 in 10.0 mi WNW 16.1 mph 24.2 mph N/A   Overcast
2:47 PM 39.2 °F 30.8 °F 35.6 °F 87% 29.63 in 5.0 mi WNW 15.0 mph 21.9 mph N/A   Overcast
3:07 PM 37.4 °F 28.2 °F 33.8 °F 87% 29.63 in 4.0 mi WNW 16.1 mph 24.2 mph N/A   Overcast
3:27 PM 37.4 °F 28.9 °F 33.8 °F 87% 29.64 in 3.0 mi West 13.8 mph 24.2 mph N/A   Overcast
3:47 PM 37.4 °F 28.9 °F 33.8 °F 87% 29.65 in 3.0 mi WNW 13.8 mph 19.6 mph N/A   Overcast
4:07 PM 37.4 °F 27.8 °F 33.8 °F 87% 29.65 in 5.0 mi West 17.3 mph 24.2 mph N/A   Overcast
4:27 PM 37.4 °F 28.5 °F 33.8 °F 87% 29.65 in 7.0 mi WNW 15.0 mph 26.5 mph N/A   Overcast
4:47 PM 37.4 °F 30.8 °F 33.8 °F 87% 29.66 in 4.0 mi WNW 9.2 mph 19.6 mph N/A   Overcast
5:07 PM 37.4 °F 28.9 °F 33.8 °F 87% 29.67 in 7.0 mi WNW 13.8 mph 23.0 mph N/A   Overcast
5:27 PM 37.4 °F 28.5 °F 33.8 °F 87% 29.68 in 7.0 mi WNW 15.0 mph 20.7 mph N/A   Overcast
5:47 PM 37.4 °F 30.3 °F 33.8 °F 87% 29.69 in 10.0 mi WNW 10.4 mph 21.9 mph N/A   Overcast
6:07 PM 35.6 °F 28.6 °F 33.8 °F 93% 29.70 in 10.0 mi WNW 9.2 mph 26.5 mph N/A   Overcast
6:27 PM 35.6 °F 28.6 °F 32.0 °F 87% 29.71 in 5.0 mi WNW 9.2 mph 20.7 mph N/A   Overcast
6:47 PM 33.8 °F 25.3 °F 32.0 °F 93% 29.72 in 5.0 mi West 11.5 mph 17.3 mph N/A   Overcast
7:07 PM 35.6 °F 28.0 °F 32.0 °F 87% 29.72 in 4.0 mi WNW 10.4 mph 16.1 mph N/A   Overcast
7:27 PM 35.6 °F 29.9 °F 33.8 °F 93% 29.73 in 5.0 mi WNW 6.9 mph - N/A   Overcast
7:47 PM 35.6 °F 27.1 °F 33.8 °F 93% 29.73 in 7.0 mi WNW 12.7 mph 19.6 mph N/A   Overcast
8:07 PM 35.6 °F 28.0 °F 33.8 °F 93% 29.74 in 7.0 mi NW 10.4 mph 17.3 mph N/A   Overcast
8:27 PM 37.4 °F 30.8 °F 33.8 °F 87% 29.75 in 7.0 mi WNW 9.2 mph - N/A   Overcast
8:47 PM 37.4 °F 31.4 °F 35.6 °F 93% 29.75 in 7.0 mi WNW 8.1 mph - N/A   Overcast
9:07 PM 37.4 °F 31.4 °F 35.6 °F 93% 29.76 in 7.0 mi NW 8.1 mph - N/A   Overcast
9:28 PM 39.2 °F 32.5 °F 35.6 °F 87% 29.76 in 7.0 mi WNW 10.4 mph 19.6 mph N/A   Overcast
9:48 PM 39.2 °F 32.0 °F 35.6 °F 87% 29.77 in 7.0 mi NW 11.5 mph 18.4 mph N/A   Overcast
10:08 PM 39.2 °F 33.6 °F 35.6 °F 87% 29.78 in 5.0 mi NW 8.1 mph - N/A   Overcast
10:28 PM 39.2 °F 32.5 °F 35.6 °F 87% 29.79 in 7.0 mi NW 10.4 mph - N/A   Overcast
10:48 PM 39.2 °F 33.6 °F 35.6 °F 87% 29.79 in 10.0 mi NW 8.1 mph - N/A   Overcast
11:08 PM 39.2 °F 34.2 °F 35.6 °F 87% 29.80 in 10.0 mi NW 6.9 mph - N/A   Overcast
11:28 PM 39.2 °F 33.6 °F 35.6 °F 87% 29.81 in 10.0 mi NNW 8.1 mph 17.3 mph N/A   Overcast
11:48 PM 39.2 °F 33.6 °F 35.6 °F 87% 29.81 in 10.0 mi NW 8.1 mph 17.3 mph N/A   Overcast